Regional Weather Roundup
Issued by NWS Newport/Morehead, NC

Current Version | Previous Version | Text Only | Print | Product List | Glossary On
Versions: 1 2 3 4 5 6 7 8 9 10 11 12 13 14 15 16 17 18 19 20 21 22 23 24 25 26 27 28 29 30 31 32 33 34 35 36 37 38 39 40 41 42 43 44 45 46 47 48 49 50
000
ASUS42 KMHX 301313
RWRMHX
WEATHER ROUNDUP FOR EASTERN NORTH CAROLINA
NATIONAL WEATHER SERVICE NEWPORT/MOREHEAD CITY NC
900 AM EDT MON MAY 30 2016

NOTE: "FAIR" INDICATES FEW OR NO CLOUDS BELOW 12,000 FEET
WITH NO SIGNIFICANT WEATHER AND/OR OBSTRUCTIONS TO VISIBILITY

NCZ015>017-031-032-045>047-102-103-301400-
NORTH COAST

CITY           SKY/WX    TMP DP  RH WIND       PRES   REMARKS
EDENTON        LGT RAIN N/A N/A N/A SE5       30.03S
ELIZABETH CITY LGT RAIN  72  71  97 SE7       30.03R
KITTY HAWK     LGT RAIN  72  71  96 S5        30.03R
MANTEO         NOT AVBL

$$

NCZ045>047-081-094-103-104-301400-
CENTRAL COAST

CITY           SKY/WX    TMP DP  RH WIND       PRES   REMARKS
FRISCO         HVY RAIN  71  70  96 CALM      30.03S VSB 1

$$

NCZ095-097-098-100-101-301400-
SOUTHERN COAST

CITY           SKY/WX    TMP DP  RH WIND       PRES   REMARKS
BEAUFORT       CLOUDY    72  70  93 E6        30.01S
CEDAR ISLAND   NOT AVBL
JACKSONVILLE   CLOUDY    76  72  87 E9        29.98S
PINEY ISLAND   LGT RAIN N/A N/A N/A SW8       30.02R
WILMINGTON     MOSUNNY   78  71  79 SE10      29.96F


$$

NCZ011>013-027>030-043-044-078>080-089-090>093-098-301400-
COASTAL PLAIN

CITY           SKY/WX    TMP DP  RH WIND       PRES   REMARKS
AHOSKIE        LGT RAIN  73  72  94 SE5       30.03R
CLINTON        MOSUNNY   77  73  86 NE6       29.99R
ELIZABETHTOWN  CLOUDY    75  74  94 E5        29.96F
GOLDSBORO      NOT AVBL
GREENVILLE     CLOUDY    75  72  88 SE6       30.03S
HAVELOCK       CLOUDY    73  70  90 E8        30.01S
KENANSVILLE    PTSUNNY   74  73  97 CALM      30.00S
KINSTON        CLOUDY    75  72  88 E7        30.01S
NEW BERN       LGT RAIN  73  70  90 SE5       30.02R
RICHLANDS      CLOUDY    74  73  97 E7        29.99S
ROCKY MOUNT    CLOUDY    77  72  84 CALM      30.01S
WASHINGTON     LGT RAIN  73  72  96 SE3       30.01S
WHITEVILLE     CLOUDY    74  71  92 E5        29.95R

$$

AMZ130-135-150-152-154-156-158-170-250-252-270-ANZ085-086-088-633-658-670-301400-
MARINE OBSERVATIONS

STATION/POSITION TIME  TEMP    WIND        PRES    WAVE   SWELL
                       AIR SEA DIR/SP/G            HT/PER HT/PER
                 (UTC) (F)     (DEG/KT/KT) (MB)    (FT/S) (FT/S)
CHESAPEAKE LIGHT 1300   69     160/  8/  9 1017.8
64 E VA BEACH    1250   67 62  190/  8/  8 1017.5    5/ 8   5/ 8
DUCK             1200   66 58  140/  8/  8 1016.2
2 E DUCK         1211      62                N/A     3/ 6
OREGON INLET     1200   71 77  150/  6/  8 1016.8
13E OREGON INLT  1300      66                N/A     4/ 8   3/ 8
HATTERAS CG      1200   72 76   CALM  /  3 1016.2
DIAMOND BUOY     1250   77 80  160/ 23/ 29 1016.0    6/ 8   2/ 8
CAPE LOOKOUT     1300   73      90/  4/  4 1015.7
BEAUFORT LAB     1200   70 75  130/  3/ 11 1015.3
30 SE NEW RVR IN 1225      75                N/A     6/ 8
27 SE WRIGHTSVLE 1208   77 75  200/  8/ 10 1014.5
5 SE WRIGHTSVLE  1208   76 75  170/  4/  8 1015.3
225 S CAPE HAT   1250   74 75  130/ 12/ 12 1016.8    4/ 8   3/ 8
41 SE CHARLESTON 1250   73 77  250/ 14/ 17 1013.1    4/ 8   2/ 8

$$




USA.gov is the U.S. government's official web portal to all federal, state and local government web resources and services.